Temperature
24 22 21 20 20 21 23 27 29 30 29 29 29 28 27 26 25 23 23 23 23 23 22 21 22 21 21 21 21 21 21 21 21 21 21 21 21 21 20 20 20 20 20 20 20 20 20 20 20
24 23 22 21 22 23 25 28 29 29 29 29 29 28 27 25 23 23 22 23 23 23 22 22 22 21 21 21 21 21 21 21 21 21 21 21 21 21 21 21 21 20 20 20 20 20 20 20 20
24 23 22 21 23 24 26 28 28 30 30 30 29 28 27 25 23 23 24 23 23 23 23 22 22 21 21 21 21 21 21 21 21 21 21 21 21 21 21 21 20 20 20 20 20 20 20 20 20
25 23 23 22 24 26 27 28 29 29 29 29 28 27 26 25 25 25 24 24 24 23 23 22 22 22 21 21 21 21 21 21 21 21 21 21 21 20 20 20 20 20 20 20 20 20 20 20 20
25 24 23 23 25 27 28 28 28 28 29 28 27 25 25 26 26 25 24 24 24 24 23 22 22 22 22 21 21 21 21 21 21 21 21 21 20 20 20 20 20 20 20 20 20 20 20 20 20
25 23 23 24 26 28 28 28 28 27 28 27 27 25 24 25 26 25 24 24 25 24 23 23 22 22 22 22 21 21 21 21 21 21 21 20 20 20 20 20 20 20 20 20 20 20 20 20 19
26 23 24 25 26 27 28 28 27 27 27 27 27 24 24 24 25 25 25 25 25 24 24 23 23 22 22 22 21 21 21 21 21 21 21 20 20 20 20 20 20 19 19 19 19 19 19 19 19
28 23 25 25 26 27 28 28 28 27 27 27 27 25 24 24 24 24 24 25 24 24 24 24 23 23 22 22 22 21 21 21 21 21 21 20 20 20 20 20 19 19 19 19 19 19 19 19 19
28 23 23 25 27 27 28 28 28 28 27 27 27 27 27 25 24 24 23 24 24 24 24 24 23 23 22 22 22 21 21 21 21 20 20 20 20 20 20 19 19 19 19 19 19 19 19 19 19
27 22 24 27 28 27 28 28 28 27 26 26 27 28 27 26 25 24 23 23 24 24 24 24 23 23 22 22 21 21 21 21 20 20 20 20 20 20 19 19 19 19 19 19 19 19 19 18 19
26 25 26 28 29 29 28 29 28 27 25 26 26 27 27 26 25 25 24 24 24 24 24 23 23 23 22 22 21 21 21 21 20 20 20 20 19 19 19 19 19 18 18 18 18 18 18 18 18
27 26 28 29 30 29 29 29 28 28 28 29 29 29 27 27 26 25 25 24 24 24 24 23 23 23 22 22 21 21 21 20 20 20 20 19 19 19 19 19 18 18 18 18 18 18 18 18 18
26 27 29 30 30 30 30 29 29 29 29 29 28 28 28 27 27 26 25 25 24 23 23 23 23 22 22 21 21 21 20 20 20 20 20 19 19 19 19 18 18 18 18 18 18 18 18 18 18
26 27 27 29 29 30 29 28 28 29 29 28 27 27 27 27 26 26 25 24 23 23 23 23 22 22 21 21 21 20 20 20 20 20 19 19 19 19 18 18 18 18 18 18 18 18 17 17 17
27 25 25 27 28 29 29 27 27 29 28 26 26 26 26 26 26 25 25 24 23 23 23 22 22 21 21 21 20 20 20 20 20 19 19 19 19 19 19 18 18 18 18 18 17 17 17 17 17
25 24 24 25 26 28 28 26 28 29 27 26 25 25 25 25 25 24 24 23 23 22 22 22 21 21 20 20 20 20 20 20 20 19 19 19 19 19 19 18 18 18 18 17 17 17 17 17 17
23 23 24 25 27 27 27 25 27 28 27 25 24 24 24 24 24 23 23 23 22 22 22 21 21 21 20 20 20 20 20 19 19 19 19 19 19 19 19 18 18 18 17 17 17 17 17 17 17
23 23 25 25 27 27 26 25 25 25 25 24 23 22 22 22 22 23 22 22 21 20 20 20 19 20 19 19 19 19 19 19 19 19 19 19 19 19 19 18 18 18 17 17 17 17 17 17 17
25 25 25 26 28 27 26 24 24 23 22 21 20 20 20 20 20 21 21 21 20 20 19 19 19 19 18 18 18 19 19 19 19 19 19 19 19 19 19 18 18 18 18 17 17 17 17 16 16
26 26 25 26 27 26 24 23 22 21 20 19 18 18 18 18 19 19 20 20 20 19 19 19 19 18 18 18 18 18 18 19 19 19 19 19 19 19 19 18 18 18 18 17 17 17 17 16 16
27 26 26 26 25 24 24 21 20 19 19 18 17 16 17 17 17 18 18 18 19 19 18 18 18 18 18 18 18 18 18 18 18 18 19 19 18 18 18 18 18 18 18 17 17 17 17 16 16
25 27 26 26 23 21 22 20 19 18 18 17 16 15 15 16 16 16 17 17 18 18 18 18 17 17 18 18 18 18 18 18 18 18 18 18 18 18 18 18 18 18 18 17 17 17 17 16 16
26 26 25 24 22 21 20 19 18 18 17 16 16 15 15 15 15 16 16 16 16 17 17 16 16 17 17 17 17 17 18 18 18 18 18 17 17 17 17 17 17 17 17 17 17 17 17 16 16
27 25 22 19 19 20 20 19 18 17 16 16 16 15 15 15 15 15 16 16 16 16 16 16 16 16 16 16 16 17 17 17 17 17 17 17 17 17 17 16 17 17 17 17 17 17 17 16 16
25 21 20 20 18 19 19 18 17 17 17 16 16 15 15 16 16 16 16 16 16 16 15 15 15 15 15 15 15 15 15 16 16 16 16 16 16 16 16 16 15 16 16 16 16 16 16 16 16
25 22 20 20 19 18 18 18 17 17 16 16 16 16 16 16 16 16 16 15 15 15 15 15 15 15 15 15 15 15 14 14 14 14 14 14 14 15 15 15 15 15 15 15 15 15 16 16 16
24 22 21 19 19 18 17 17 16 16 16 16 16 16 16 16 16 16 15 15 15 15 15 15 14 14 14 14 13 13 13 13 13 13 13 13 13 13 13 14 14 14 14 14 14 15 15 15 15
23 22 19 19 19 19 18 17 16 16 16 16 16 16 16 16 16 16 15 15 15 15 14 14 14 14 13 13 13 13 12 12 12 12 12 12 12 12 12 12 13 13 13 13 13 14 14 14 14
22 22 19 17 18 18 18 17 17 16 15 15 15 16 16 16 16 16 16 15 15 15 14 14 14 13 13 13 12 12 12 11 11 11 11 11 11 11 11 11 12 12 12 12 12 13 13 13 14
22 22 19 19 19 18 17 16 17 15 15 16 16 17 17 16 16 16 16 15 15 14 14 14 13 13 13 12 12 12 11 11 11 11 11 10 10 10 10 10 11 11 11 11 11 12 12 12 13
Wind_Speed
11 10 5 2 1 1 5 5 1 5 6 6 10 11 9 5 4 5 6 19 21 20 19 23 24 23 22 21 20 19 19 18 17 17 16 16 16 15 15 15 14 14 13 12 12 12 12 11 11
7 6 3 1 1 2 5 3 5 3 6 8 9 9 8 7 8 10 8 18 23 20 19 22 25 24 23 21 20 19 19 18 17 17 16 15 15 15 14 14 13 13 12 12 11 11 11 10 10
5 5 3 1 1 2 5 4 4 3 2 4 5 5 6 7 10 7 11 21 20 16 18 22 26 24 23 21 20 19 18 18 17 17 16 15 15 14 14 13 13 12 12 11 11 10 10 9 9
4 3 1 2 4 4 3 6 7 3 5 6 7 6 5 6 7 12 20 21 20 14 16 23 25 24 23 22 21 19 19 18 17 16 16 15 14 14 13 13 12 12 11 11 10 10 10 10 9
3 3 2 2 6 4 3 4 6 6 3 4 7 6 4 4 18 23 22 21 20 15 15 22 25 24 23 22 21 20 19 18 17 17 16 15 14 14 13 12 12 12 11 11 11 11 11 11 10
2 3 2 3 5 4 3 2 1 3 5 5 7 6 4 12 20 21 21 19 19 19 15 20 24 24 23 22 21 20 19 18 18 17 16 16 15 14 13 13 13 12 12 12 12 12 12 12 12
4 3 4 5 4 4 4 2 2 1 2 2 6 6 5 12 17 19 18 18 17 17 15 14 19 21 23 22 21 20 19 19 18 18 17 16 15 15 14 14 14 14 14 14 14 14 14 14 14
6 3 3 3 3 5 3 3 4 4 2 3 5 8 7 11 14 16 16 16 15 15 14 12 14 16 17 19 21 21 20 19 19 18 17 17 16 16 15 15 15 16 16 16 16 16 16 16 16
3 2 4 5 5 5 4 3 2 3 5 3 4 7 11 13 16 17 15 13 13 14 12 12 12 12 15 15 19 19 20 19 19 17 18 17 14 14 14 15 17 18 18 19 18 18 18 17 17
5 4 9 7 6 6 6 5 8 5 5 4 6 8 13 15 18 20 19 19 17 17 15 14 14 13 12 14 14 14 15 15 16 14 15 14 13 13 14 15 18 20 20 20 20 20 19 17 14
4 7 8 10 9 5 4 4 6 10 6 10 15 18 18 16 17 18 19 20 20 19 18 16 15 13 12 9 9 10 11 11 13 14 15 13 11 11 11 10 12 15 17 15 15 16 14 12 11
5 10 9 7 5 3 4 3 3 7 12 17 21 23 21 18 18 18 18 18 17 18 18 17 16 14 13 9 8 8 7 7 8 13 15 11 6 5 5 5 6 6 7 7 8 7 9 11 13
6 7 8 7 6 5 3 4 4 7 8 13 16 17 19 18 15 13 14 16 16 16 16 16 15 14 14 11 9 9 8 7 10 11 14 13 6 6 4 3 3 3 4 4 4 4 6 7 7
7 10 12 10 9 5 4 6 2 7 9 14 15 16 15 14 13 10 10 11 12 14 14 14 13 12 11 10 9 7 7 7 8 9 12 13 8 5 4 3 2 2 3 4 4 4 5 5 5
7 9 12 10 8 7 4 7 8 8 11 15 15 13 10 8 7 9 10 9 8 10 11 11 12 10 9 8 8 6 5 5 5 5 10 11 9 6 4 3 1 1 2 2 1 2 2 3 3
7 6 7 12 8 9 2 10 14 5 12 12 11 9 7 5 5 4 3 4 5 3 5 7 8 6 5 5 5 4 3 4 4 5 7 9 9 8 4 3 2 1 0 0 1 1 2 2 3
5 4 9 13 8 6 5 8 8 5 11 9 7 6 6 5 4 4 5 5 5 4 2 3 2 4 5 4 3 2 2 3 3 4 4 6 8 8 4 3 2 2 1 1 1 0 1 2 3
7 7 7 8 8 2 2 1 3 6 10 8 7 6 7 8 6 7 10 11 10 9 8 4 3 2 0 2 2 2 1 1 2 3 4 6 6 7 5 3 3 3 2 1 1 1 1 2 3
8 6 6 7 7 6 7 9 10 11 11 10 10 10 11 10 11 13 14 14 12 11 8 6 6 5 4 1 1 1 1 1 2 3 4 6 6 6 4 4 3 3 2 1 0 0 1 2 2
3 4 5 6 8 8 9 12 14 16 15 12 13 13 12 10 12 12 11 9 8 8 6 4 2 4 4 2 1 1 1 1 2 3 4 6 6 6 5 5 4 4 2 1 1 1 0 1 1
4 2 3 4 6 9 8 8 11 12 17 18 17 13 12 11 10 9 8 6 6 5 4 2 2 1 4 3 1 1 2 1 1 1 2 3 5 6 6 7 6 5 3 2 1 2 2 1 1
4 4 4 5 5 4 5 2 5 6 14 16 15 13 12 12 11 10 10 10 9 7 6 5 3 2 2 1 1 0 1 1 2 2 2 2 4 4 5 6 7 6 4 4 3 3 2 2 2
3 2 3 3 2 2 4 4 2 4 9 11 11 12 11 11 11 12 12 11 11 10 9 8 8 8 7 6 4 2 2 1 1 0 1 1 2 3 4 5 6 6 5 5 4 3 3 3 3
1 5 7 7 6 3 3 3 3 3 3 5 8 9 9 8 9 10 10 10 11 10 9 9 9 9 9 9 8 6 5 4 3 3 1 1 2 2 2 3 4 5 4 5 5 5 5 4 4
5 6 5 7 6 3 1 4 1 1 5 6 6 6 5 5 6 7 8 9 8 8 8 7 8 7 7 8 8 7 6 5 4 3 3 3 2 2 3 2 3 3 4 5 5 5 5 5 5
3 6 5 3 4 3 2 2 3 3 4 5 5 5 5 4 4 5 5 5 5 5 5 5 5 5 5 6 6 6 6 4 4 4 3 3 3 3 4 3 3 4 5 5 5 5 6 5 6
2 2 5 6 0 2 0 0 1 3 3 4 4 4 4 4 4 4 3 3 3 3 2 3 3 2 3 3 3 3 4 4 4 5 4 4 4 4 5 5 5 5 5 6 5 5 6 6 6
3 2 5 4 2 1 2 3 5 8 8 5 4 4 3 3 3 4 4 4 4 4 3 2 2 1 1 1 2 2 2 3 3 4 5 5 5 5 6 6 6 6 7 6 6 6 7 7 7
5 4 4 2 4 4 3 5 3 8 8 7 5 5 5 5 5 5 5 5 5 5 4 4 4 3 4 4 4 4 5 5 4 4 5 5 5 6 6 6 6 7 7 7 6 7 7 7 7
1 1 3 2 3 2 3 4 1 4 5 6 5 4 4 4 5 6 6 6 5 6 6 6 7 7 8 8 7 7 7 7 7 7 8 7 7 7 7 6 7 7 7 7 7 8 8 7 8
Wind_Direction
159 153 147 165 127 12 279 280 2 40 49 53 75 88 87 74 140 154 135 145 143 149 154 153 150 150 150 149 148 147 145 143 141 139 136 134 133 133 133 133 133 134 134 135 135 137 136 136 136
164 157 152 171 97 357 296 318 4 41 128 115 79 80 81 73 86 108 123 145 144 148 151 153 151 152 152 152 152 152 150 148 147 146 144 142 142 142 141 141 141 142 143 145 146 146 148 148 149
177 174 154 124 168 208 285 308 335 354 115 98 83 58 76 109 112 121 143 143 141 145 150 154 153 154 155 156 156 156 155 154 153 152 151 151 150 150 150 150 151 152 153 156 158 159 161 164 167
158 140 86 86 238 234 248 311 340 350 45 64 99 66 59 109 121 135 141 144 143 145 151 156 155 157 158 159 160 161 160 159 159 159 159 159 159 160 160 162 163 164 166 169 171 174 177 180 185
120 116 101 271 250 249 254 293 330 331 22 69 95 86 47 53 122 136 146 149 147 148 154 158 158 160 162 163 165 165 165 165 165 166 167 169 170 171 173 175 177 179 182 184 187 190 193 196 201
108 93 94 264 263 256 239 255 23 30 78 81 90 97 83 128 134 147 151 153 152 153 156 161 162 164 165 167 169 170 171 172 173 174 176 179 181 184 186 188 191 194 197 200 202 205 206 208 213
156 138 219 243 258 264 234 175 125 179 135 134 120 102 120 150 151 153 152 151 152 156 159 162 166 168 170 172 174 175 177 179 181 183 185 189 192 195 198 201 204 207 210 212 214 216 217 219 220
160 119 271 271 256 252 224 154 156 159 164 125 124 134 158 176 156 150 148 148 152 159 165 165 167 169 172 177 180 182 184 187 189 191 194 197 201 205 209 213 216 219 221 222 223 224 226 226 227
137 87 245 241 233 255 230 169 158 145 118 126 138 150 160 157 148 147 146 147 156 165 172 171 171 172 175 179 187 188 191 195 196 199 202 204 209 213 218 224 226 228 229 229 229 229 230 232 233
125 188 238 232 235 242 239 185 167 137 121 123 113 125 146 152 156 158 161 165 169 174 180 180 178 178 177 185 189 191 196 200 201 203 208 209 211 217 224 232 235 235 236 235 233 232 232 234 235
199 222 259 267 256 240 234 210 165 141 163 177 161 161 163 168 167 167 170 175 177 178 181 184 183 181 181 189 183 191 200 201 205 208 211 213 216 222 230 236 244 242 240 237 238 235 231 229 229
268 271 273 276 281 268 242 209 199 186 196 186 173 168 171 176 177 177 175 179 178 179 184 183 183 183 189 191 186 189 196 200 205 212 213 210 213 217 221 225 231 228 227 224 228 227 228 229 231
277 283 299 299 306 287 285 255 228 233 196 174 173 172 176 179 181 178 175 176 177 182 185 184 183 185 189 190 189 191 198 201 202 206 211 207 207 211 210 211 213 212 212 215 223 226 233 234 235
284 303 305 301 301 293 299 293 283 241 178 171 178 184 186 182 177 170 165 168 179 184 183 180 181 184 184 185 185 187 194 196 196 199 201 198 196 188 188 190 188 204 208 213 218 228 233 238 237
308 326 321 305 298 285 339 315 266 230 170 176 187 190 189 188 177 178 174 168 174 185 176 178 180 179 177 181 181 176 179 175 180 183 181 176 176 175 168 163 177 220 220 223 239 260 255 255 250
337 344 308 288 283 275 228 265 270 216 166 175 179 181 180 184 173 167 132 135 132 127 153 173 181 178 185 186 179 166 153 155 171 170 164 166 168 161 146 145 165 197 160 357 301 286 298 286 277
344 293 278 290 278 253 195 235 270 178 153 152 150 154 148 124 104 108 107 96 87 76 109 150 164 183 198 202 172 129 123 143 152 150 147 155 154 145 136 138 144 120 85 39 338 333 253 279 288
261 268 283 294 309 342 133 184 36 101 113 114 108 100 86 84 74 70 72 67 65 51 39 32 30 346 215 143 98 81 105 134 144 137 141 134 137 138 130 128 127 110 96 54 11 305 285 261 277
247 274 297 301 322 33 57 63 53 49 60 63 61 63 68 60 50 53 60 65 71 69 66 46 41 31 21 37 146 162 190 187 156 149 154 145 145 144 137 135 126 121 122 136 336 335 334 308 325
285 346 336 327 351 33 56 59 53 49 49 53 63 63 66 68 58 52 55 65 76 84 95 99 79 74 57 329 286 225 221 211 187 165 167 159 158 164 159 156 154 150 136 90 62 81 43 307 11
350 349 345 338 8 32 59 40 40 47 50 51 52 54 55 64 69 65 58 50 59 73 87 86 76 144 164 187 267 31 51 32 52 153 186 190 176 178 173 172 166 169 158 168 200 158 140 246 308
324 325 22 23 44 358 48 49 15 33 52 49 47 48 47 44 51 59 58 46 45 47 59 63 56 36 38 79 90 134 155 190 217 204 197 203 201 198 190 181 177 176 171 179 194 177 180 177 258
268 340 32 26 83 52 31 97 333 16 48 45 48 53 53 51 53 58 57 50 48 51 57 53 42 30 18 23 40 54 50 28 342 60 119 233 253 239 209 188 180 182 182 185 192 199 207 199 212
311 28 26 39 58 27 340 106 338 4 60 67 65 67 66 66 64 63 61 60 57 56 56 53 47 33 24 27 31 41 46 35 33 24 14 320 299 294 269 203 186 187 191 197 205 213 220 223 226
37 62 18 357 5 278 24 103 206 122 114 114 111 104 96 84 77 72 65 63 62 60 58 57 54 39 26 29 28 27 27 26 23 8 356 351 336 318 313 274 221 214 215 214 212 217 227 227 233
305 126 147 222 246 270 22 151 200 153 134 131 126 124 115 104 97 96 91 88 84 78 70 65 61 45 27 27 22 21 21 21 11 2 350 343 325 303 314 308 269 250 242 235 223 222 230 231 234
5 319 182 155 81 80 213 163 189 171 178 168 156 142 140 142 139 136 130 127 126 115 105 98 84 53 25 21 10 9 7 7 357 348 342 332 325 321 331 324 312 292 271 255 241 235 237 235 235
120 146 62 71 74 334 263 227 213 193 200 193 173 170 172 163 166 173 177 175 171 169 166 147 132 158 275 317 322 328 324 321 320 326 324 319 317 323 325 325 318 308 297 280 261 251 246 240 240
1 26 72 103 157 157 240 263 258 185 184 180 187 188 182 191 201 209 207 200 192 185 183 191 201 213 230 236 236 248 258 264 272 278 281 285 290 300 307 307 308 305 299 296 282 265 257 248 248
48 294 144 143 289 145 160 261 284 162 168 175 192 207 211 221 227 226 223 218 210 213 219 224 227 231 236 235 234 238 247 255 262 266 269 271 276 280 281 286 292 294 297 293 287 282 274 255 250
Height
1515 1516 1517 1519 1521 1524 1519 1500 1487 1482 1482 1483 1481 1483 1488 1493 1498 1505 1502 1504 1508 1512 1516 1520 1523 1525 1527 1528 1530 1531 1532 1534 1535 1536 1537 1539 1540 1541 1542 1543 1544 1545 1545 1546 1547 1548 1548 1549 1550
1515 1516 1518 1519 1521 1530 1517 1497 1491 1485 1485 1483 1484 1486 1489 1494 1495 1497 1500 1505 1509 1512 1515 1519 1522 1525 1527 1528 1530 1531 1532 1534 1535 1536 1538 1539 1540 1541 1542 1543 1544 1545 1545 1546 1547 1548 1549 1550 1550
1515 1515 1517 1518 1520 1524 1513 1496 1492 1488 1485 1482 1486 1489 1491 1495 1496 1498 1501 1505 1509 1512 1515 1519 1522 1524 1526 1528 1529 1531 1532 1533 1535 1536 1537 1539 1540 1541 1542 1543 1544 1544 1545 1546 1547 1548 1549 1549 1550
1514 1516 1517 1520 1519 1509 1501 1495 1491 1489 1488 1486 1487 1492 1495 1498 1498 1500 1503 1506 1509 1512 1515 1518 1521 1523 1525 1527 1528 1530 1532 1533 1534 1536 1537 1538 1539 1540 1541 1542 1543 1544 1544 1545 1546 1547 1547 1548 1549
1512 1513 1518 1522 1514 1502 1496 1493 1492 1491 1489 1490 1488 1493 1497 1498 1499 1501 1504 1507 1509 1511 1515 1517 1520 1522 1524 1526 1527 1529 1531 1532 1534 1535 1536 1537 1538 1539 1540 1541 1542 1543 1543 1544 1544 1545 1546 1547 1547
1511 1511 1522 1525 1511 1498 1493 1491 1492 1495 1494 1493 1492 1495 1499 1499 1500 1503 1505 1507 1509 1511 1513 1516 1519 1521 1523 1525 1526 1528 1530 1531 1533 1534 1535 1536 1538 1538 1539 1540 1540 1541 1542 1542 1543 1543 1544 1545 1545
1509 1512 1519 1514 1509 1500 1493 1490 1494 1496 1494 1494 1492 1497 1500 1501 1502 1504 1506 1508 1510 1512 1513 1515 1518 1520 1522 1524 1526 1527 1529 1530 1532 1533 1534 1535 1536 1537 1538 1539 1539 1539 1540 1540 1541 1541 1542 1542 1543
1505 1509 1513 1511 1507 1500 1491 1490 1492 1494 1493 1493 1492 1494 1498 1502 1503 1504 1507 1509 1510 1511 1513 1515 1517 1519 1521 1523 1524 1526 1528 1529 1531 1532 1533 1534 1535 1535 1536 1537 1537 1538 1538 1538 1539 1539 1540 1540 1541
1503 1511 1517 1509 1503 1496 1490 1490 1492 1491 1490 1491 1490 1490 1493 1499 1502 1504 1505 1507 1509 1510 1512 1513 1515 1517 1519 1521 1523 1525 1526 1528 1529 1530 1531 1532 1533 1533 1534 1535 1535 1536 1536 1536 1536 1537 1537 1537 1538
1500 1512 1505 1495 1491 1490 1487 1486 1487 1489 1490 1489 1488 1489 1491 1495 1498 1499 1500 1502 1505 1507 1509 1511 1513 1515 1517 1520 1521 1523 1525 1526 1528 1529 1530 1530 1531 1532 1532 1533 1533 1533 1533 1533 1534 1534 1534 1535 1535
1496 1499 1491 1487 1485 1484 1483 1483 1483 1485 1488 1485 1483 1485 1488 1490 1494 1496 1497 1499 1501 1504 1507 1509 1511 1513 1515 1517 1519 1521 1523 1524 1526 1527 1528 1529 1529 1530 1530 1531 1530 1531 1531 1531 1531 1531 1531 1532 1532
1495 1490 1487 1484 1482 1481 1481 1480 1480 1479 1478 1478 1478 1479 1482 1486 1490 1492 1494 1496 1500 1502 1504 1507 1509 1511 1514 1515 1517 1519 1521 1522 1523 1525 1525 1526 1527 1527 1528 1528 1528 1528 1528 1528 1528 1528 1528 1528 1529
1491 1487 1484 1481 1480 1479 1478 1477 1477 1475 1475 1477 1479 1480 1481 1483 1486 1490 1493 1496 1498 1501 1504 1506 1508 1510 1512 1514 1515 1517 1519 1520 1522 1523 1523 1524 1524 1525 1525 1525 1525 1525 1525 1525 1524 1524 1525 1525 1525
1490 1486 1482 1478 1476 1475 1476 1475 1475 1474 1474 1476 1478 1479 1480 1482 1485 1489 1492 1494 1498 1500 1502 1504 1506 1509 1511 1512 1513 1515 1517 1519 1520 1520 1521 1521 1522 1523 1523 1523 1522 1522 1522 1521 1521 1521 1521 1521 1521
1489 1487 1482 1476 1474 1473 1475 1478 1472 1469 1473 1475 1477 1479 1482 1484 1486 1487 1489 1492 1497 1499 1501 1504 1506 1507 1509 1511 1512 1513 1515 1516 1517 1518 1519 1519 1520 1520 1520 1520 1519 1519 1518 1518 1517 1517 1517 1517 1517
1490 1493 1495 1479 1473 1470 1479 1487 1469 1469 1471 1474 1477 1480 1482 1484 1487 1490 1492 1493 1495 1499 1501 1504 1505 1506 1507 1509 1510 1511 1513 1514 1515 1516 1516 1518 1518 1518 1518 1517 1516 1516 1515 1514 1514 1513 1513 1513 1512
1500 1505 1499 1483 1469 1468 1475 1482 1469 1469 1470 1475 1479 1481 1483 1484 1487 1489 1491 1492 1494 1498 1499 1500 1502 1503 1503 1504 1507 1509 1510 1511 1513 1514 1514 1515 1515 1515 1515 1514 1513 1513 1512 1511 1510 1510 1510 1509 1508
1508 1503 1496 1488 1472 1468 1474 1478 1475 1474 1474 1477 1480 1482 1484 1485 1487 1489 1490 1492 1493 1496 1496 1500 1500 1499 1500 1499 1504 1506 1508 1509 1510 1511 1513 1513 1513 1513 1512 1511 1511 1510 1509 1508 1507 1506 1506 1505 1504
1492 1494 1494 1484 1471 1473 1478 1483 1484 1483 1483 1485 1486 1486 1487 1490 1491 1490 1490 1491 1492 1493 1495 1494 1497 1496 1497 1497 1501 1504 1506 1508 1507 1508 1511 1511 1511 1511 1510 1509 1508 1508 1507 1506 1504 1503 1503 1502 1500
1487 1491 1491 1483 1473 1476 1485 1492 1493 1492 1493 1493 1492 1492 1491 1491 1491 1491 1492 1493 1492 1493 1493 1493 1492 1495 1496 1497 1500 1503 1505 1506 1506 1506 1508 1508 1508 1508 1507 1507 1506 1505 1505 1503 1502 1501 1499 1499 1497
1486 1489 1488 1486 1481 1481 1487 1501 1501 1500 1498 1498 1498 1498 1498 1496 1494 1494 1493 1494 1494 1493 1493 1493 1495 1495 1496 1497 1500 1501 1503 1504 1504 1504 1505 1505 1505 1506 1505 1504 1504 1503 1502 1501 1500 1498 1497 1495 1495
1492 1481 1480 1483 1493 1504 1498 1517 1511 1506 1504 1504 1505 1503 1502 1501 1500 1497 1496 1496 1495 1495 1494 1494 1494 1496 1496 1497 1499 1500 1501 1502 1502 1501 1501 1502 1503 1503 1502 1502 1501 1500 1500 1499 1498 1496 1494 1493 1492
1483 1478 1480 1484 1494 1505 1506 1516 1519 1510 1511 1512 1510 1508 1506 1505 1504 1501 1499 1499 1498 1497 1497 1497 1497 1497 1496 1497 1497 1498 1499 1499 1499 1498 1498 1499 1499 1499 1498 1498 1498 1497 1497 1496 1495 1494 1492 1491 1489
1476 1481 1488 1496 1505 1519 1514 1519 1524 1518 1515 1514 1513 1511 1509 1508 1506 1504 1503 1502 1501 1500 1500 1500 1499 1497 1497 1497 1496 1496 1496 1496 1495 1495 1495 1495 1495 1495 1494 1494 1494 1494 1493 1492 1491 1490 1489 1488 1487
1481 1500 1520 1522 1531 1529 1516 1521 1524 1515 1512 1512 1512 1511 1509 1508 1505 1505 1504 1503 1503 1503 1502 1502 1501 1500 1499 1498 1496 1495 1493 1492 1491 1491 1491 1490 1490 1490 1489 1489 1489 1489 1489 1488 1487 1486 1485 1484 1483
1485 1497 1522 1532 1533 1528 1520 1523 1520 1513 1512 1511 1510 1510 1510 1508 1507 1506 1505 1505 1504 1504 1503 1502 1501 1500 1499 1497 1495 1494 1492 1490 1488 1487 1487 1486 1485 1484 1484 1484 1483 1483 1484 1483 1482 1481 1481 1480 1479
1489 1495 1497 1515 1517 1528 1528 1523 1519 1514 1513 1512 1511 1510 1509 1508 1507 1507 1506 1505 1505 1504 1503 1502 1500 1499 1497 1496 1494 1492 1490 1488 1486 1485 1483 1482 1480 1480 1479 1478 1477 1477 1477 1477 1476 1476 1475 1475 1474
1486 1491 1503 1515 1526 1532 1528 1524 1522 1516 1513 1511 1510 1510 1510 1509 1508 1506 1505 1504 1503 1502 1500 1499 1498 1496 1495 1493 1491 1489 1487 1485 1483 1481 1480 1478 1476 1474 1473 1472 1471 1471 1471 1470 1470 1469 1469 1469 1468
1491 1494 1503 1513 1516 1528 1533 1529 1510 1510 1509 1510 1510 1510 1509 1508 1507 1505 1503 1501 1500 1498 1497 1496 1494 1493 1491 1489 1487 1486 1484 1482 1479 1477 1475 1473 1471 1469 1467 1466 1465 1464 1464 1463 1463 1462 1462 1462 1462
1489 1493 1501 1515 1516 1518 1528 1528 1509 1509 1509 1510 1510 1509 1508 1506 1504 1502 1500 1498 1496 1494 1493 1491 1489 1488 1486 1484 1482 1480 1478 1476 1474 1472 1470 1468 1466 1464 1462 1461 1459 1458 1457 1457 1456 1456 1455 1455 1455